Weather in Kunev

Ukraine / Khmelnitsky District     50°14′26″N   26°22′00″E
temp.,
°C
wind,
m/s
gust,
m/s
humid.,
%
clouds,
%
prec.,
mm/h
press.,
hPa
HPBL,
m
16 september, thu
thu1600:00+12ese237248 0.0 101932
03:00+11se3574100 0.0 101973
06:00+11se367914 0.0 101888
09:00+15sse476798 0.0 1017251
12:00+21sse674857 0.0 1017871
15:00+24s554153 0.0 10151377
18:00+22sse3651100 0.0 1014154
21:00+19s41158100 0.0 1013226
17 september, fri
fri1700:00+19ssw41254100 0.0 1013350
03:00+17s3769100 0.1 1012198
06:00+17ssw367782 0.1 1010128
09:00+19ssw367093 0.1 1009209
12:00+22ssw125747 0.0 1008643
15:00+24s1249100 0.1 10061373
18:00+20wnw3479100 1.1 1006157
21:00+17w2389100 1.9 100651
18 september, sat
sat1800:00+16w3597100 1.2 1005239
03:00+15w61094100 3.6 1005555
06:00+13wnw61295100 0.9 1006578
09:00+13wnw61292100 0.9 1007735
12:00+13w61289100 0.1 1008818
15:00+14wnw8127996 0.1 1009993
18:00+12w5128586 0.0 1010738
21:00+12w498783 0.0 1011653
19 september, sun
sun1900:00+12w388685 0.0 1011518
03:00+11wsw389382 0.3 1011382
06:00+11wnw3794100 0.4 1011650
09:00+9w4792100 1.0 1012543
12:00+8w5891100 0.8 1013616
15:00+8w5886100 1.7 1013966
18:00+8w6989100 0.1 1013716
21:00+7wnw6992100 0.4 1013961
20 september, mon
mon2000:00+6wnw6991100 0.4 10131134
03:00+6nw71092100 0.6 10131088
06:00+5nw71196100 0.1 1014925
09:00+4nw71196100 0.3 1015943
12:00+4nw71095100 0.2 1015909
15:00+4nw71094100 0.3 1016829
18:00+4nw71197100 0.3 1017830
21:00+4nnw61097100 0.9 1019689